Burlington, IA

6:38 PM CDT on July 24, 2016 (GMT -0500)
Burlington Regional

Weather History for KBRL - October, 2013

Change the Weather History Date:

Thursday, October 24, 2013

  Actual Average Record
Temperature  
Mean Temperature 34 °F 52 °F  
Max Temperature 42 °F 63 °F 84 °F (1963)
Min Temperature 26 °F 42 °F 23 °F (1981)
Degree Days  
Heating Degree Days 31 13  
Month to date heating degree days 252 223  
Since 1 July heating degree days 304 294  
Cooling Degree Days 0 0  
Month to date cooling degree days 33 19  
Year to date cooling degree days 1115 1201  
Moisture  
Dew Point 26 °F    
Average Humidity 66    
Maximum Humidity 85    
Minimum Humidity 46    
Precipitation  
Precipitation 0.00 in 0.09 in 0.36 in (2002)
Month to date precipitation 0.52 2.45  
Year to date precipitation 28.78 33.22  
Sea Level Pressure  
Sea Level Pressure 30.27 in    
Wind  
Wind Speed 6 mph (NW)    
Max Wind Speed 17 mph    
Max Gust Speed 23 mph    
Visibility 10 miles    
Events      
T = Trace of Precipitation, MM = Missing Value Source: NWS Daily Summary

Daily Weather History Graph

Daily Weather History Graph

Search for Another Location

Airport or City:

Trip Planner

Search our weather history database for the weather conditions in past years. The results will help you decide how hot, cold, wet, or windy it might be!

Date:

Astronomy

Oct. 24, 2013 Rise Set
Actual Time 7:26 AM CDT 6:10 PM CDT
Civil Twilight 6:57 AM CDT 6:38 PM CDT
Nautical Twilight 6:25 AM CDT 7:10 PM CDT
Astronomical Twilight 5:54 AM CDT 7:42 PM CDT
Moon 10:34 PM CDT 12:27 PM CDT
Length of Visible Light 11h 40m
Length of Day
10h 44m
Waning Gibbous, 71% of the Moon is Illuminated
Oct 24
Waning Gibbous
Oct 26
Last Quarter
Nov 3
New
Nov 9
First Quarter
Nov 17
Full

Hourly Weather History & Observations

Time (CDT) Temp. Windchill Dew Point Humidity Pressure Visibility Wind Dir Wind Speed Gust Speed Precip Events Conditions
12:26 AM 37.4 °F 31.4 °F 35.6 °F 93% 30.10 in 10.0 mi NW 8.1 mph - N/A   Overcast
12:53 AM 37.9 °F 31.5 °F 34.0 °F 86% 30.12 in 10.0 mi NW 9.2 mph - N/A   Overcast
1:53 AM 37.0 °F 31.6 °F 30.0 °F 76% 30.14 in 10.0 mi NW 6.9 mph 16.1 mph N/A   Overcast
2:53 AM 36.0 °F 31.1 °F 26.1 °F 67% 30.14 in 10.0 mi NW 5.8 mph - N/A   Overcast
3:53 AM 36.0 °F 32.1 °F 26.1 °F 67% 30.14 in 10.0 mi NW 4.6 mph - N/A   Overcast
4:53 AM 36.0 °F 32.1 °F 27.0 °F 70% 30.16 in 10.0 mi WNW 4.6 mph - N/A   Overcast
5:53 AM 36.0 °F 31.1 °F 27.0 °F 70% 30.17 in 10.0 mi WNW 5.8 mph - N/A   Overcast
6:53 AM 35.1 °F 30.1 °F 26.1 °F 70% 30.20 in 10.0 mi NW 5.8 mph - N/A   Overcast
7:53 AM 35.1 °F 30.1 °F 27.0 °F 72% 30.22 in 10.0 mi NW 5.8 mph - N/A   Overcast
8:53 AM 36.0 °F 29.6 °F 28.0 °F 73% 30.24 in 10.0 mi NW 8.1 mph - N/A   Overcast
9:53 AM 37.9 °F 30.5 °F 26.1 °F 62% 30.26 in 10.0 mi NNW 11.5 mph 20.7 mph N/A   Scattered Clouds
10:53 AM 37.9 °F 29.6 °F 21.9 °F 53% 30.29 in 10.0 mi North 13.8 mph - N/A   Overcast
11:53 AM 37.9 °F 30.5 °F 21.0 °F 51% 30.31 in 10.0 mi NNW 11.5 mph 19.6 mph N/A   Overcast
12:53 PM 37.9 °F 30.9 °F 21.9 °F 53% 30.32 in 10.0 mi NNW 10.4 mph - N/A   Overcast
1:53 PM 37.9 °F 30.9 °F 23.0 °F 55% 30.32 in 10.0 mi NNW 10.4 mph 16.1 mph N/A   Overcast
2:53 PM 39.0 °F 32.8 °F 21.9 °F 50% 30.32 in 10.0 mi NNW 9.2 mph 18.4 mph N/A   Overcast
3:53 PM 39.9 °F 36.7 °F 23.0 °F 51% 30.33 in 10.0 mi NNW 4.6 mph 16.1 mph N/A   Overcast
4:53 PM 41.0 °F 35.8 °F 23.0 °F 49% 30.32 in 10.0 mi NNW 8.1 mph - N/A   Scattered Clouds
5:53 PM 39.0 °F 35.7 °F 23.0 °F 53% 30.34 in 10.0 mi NW 4.6 mph - N/A   Partly Cloudy
6:53 PM 35.1 °F - 26.1 °F 70% 30.35 in 10.0 mi Calm Calm - N/A   Overcast
7:53 PM 34.0 °F - 27.0 °F 75% 30.36 in 10.0 mi Calm Calm - N/A   Mostly Cloudy
8:53 PM 30.0 °F - 25.0 °F 82% 30.37 in 10.0 mi Calm Calm - N/A   Clear
9:53 PM 33.1 °F 28.7 °F 24.1 °F 70% 30.38 in 10.0 mi West 4.6 mph - N/A   Clear
10:53 PM 33.1 °F 28.7 °F 25.0 °F 72% 30.39 in 10.0 mi WNW 4.6 mph - N/A   Clear
11:53 PM 32.0 °F 27.5 °F 25.0 °F 75% 30.40 in 10.0 mi WNW 4.6 mph - N/A   Clear